Location: Casilda
(33.0440°S, 61.1680°W)
Time: 11:35:28
(UTC-03:00)

ISS - Pass Details

Date: 16 October 2019
Orbit: 411 x 421 km, 51.6° (Epoch: 18 October)

Event Time Altitude Azimuth Distance (km) Brightness Sun altitude
Exits shadow 04:36:09 12° 201° (SSW) 1,405 -1.0 -22.0°
Maximum altitude 04:38:49 28° 143° (SE) 834 -1.7 -21.5°
Drops below altitude 10° 04:41:49 10° 81° (E) 1,515 -0.2 -20.9°
Sets 04:44:06 0° 69° (ENE) 2,374 0.7 -20.5°
